Tracking 30703 objects as of 13-Jun-2025
HD Live streaming from Space Station
objects crossing your sky now

ATLAS 5 CENTAUR DEB

Track ATLAS 5 CENTAUR DEB now!


NORAD ID: 49359
Int'l Code: 2018-079FL
Perigee: 8,383.2 km
Apogee: 34,532.9 km
Inclination: 12.9 °
Period: 770.0 minutes
Semi major axis: 27829 km
RCS: Unknown
Launch date: October 17, 2018
Source: United States (US)
Launch site: AIR FORCE EASTERN TEST RANGE (AFETR)

Note: This is SATELLITE DEBRIS
Your satellite tracking list
Your tracking list is empty




NASA's NSSDC Master Catalog

Two Line Element Set (TLE):
1 49359U 18079FL  25158.86647371 -.00000085  00000-0  00000-0 0  9992
2 49359  12.9150  56.4954 4698272 278.4288  32.7979  1.87006114 25787
Source of the keplerian elements: AFSPC